OE3PDB-10 Weather Reports


Display with metric or nautical units.
time (UTC)temp
F
wind
direction
speed
MPH
gust
MPH
rain 1hr
in
rain 24hr
in
rain mn
in
humidity
%
barometer
mb
20260503005048 52 247 0.0 0.0 0.00 0.00 0.00 57 1111.0
20260503004048 52 247 0.0 0.0 0.00 0.00 0.00 56 1111.0
20260503003048 53 247 0.0 0.0 0.00 0.00 0.00 56 1111.0
20260503002048 52 247 0.0 0.0 0.00 0.00 0.00 56 1111.0
20260503001048 53 247 0.0 0.0 0.00 0.00 0.00 55 1111.0
20260502235047 53 247 0.0 0.0 0.00 0.00 0.00 54 1111.0
20260502234047 54 247 0.0 0.0 0.00 0.00 0.00 53 1111.0
20260502233047 54 247 0.0 0.0 0.00 0.00 0.00 52 1111.0
20260502232047 55 247 0.0 0.0 0.00 0.00 0.00 51 1111.0
20260502231047 55 247 0.0 0.0 0.00 0.00 0.00 51 1111.0
20260502230047 55 247 0.0 0.0 0.00 0.00 0.00 51 1111.0
20260502225047 55 247 0.0 0.0 0.00 0.00 0.00 51 1111.0
20260502224047 56 270 0.0 0.0 0.00 0.00 0.00 51 1111.0
20260502223047 55 247 0.0 0.0 0.00 0.00 0.00 51 1111.0
20260502222047 55 247 0.0 0.0 0.00 0.00 0.00 51 1111.0
20260502221047 55 247 0.0 0.0 0.00 0.00 0.00 51 1111.0
20260502220047 55 247 0.0 0.0 0.00 0.00 0.00 51 1111.0
20260502215047 55 247 0.0 0.0 0.00 0.00 0.00 50 1111.0
20260502214047 55 247 0.0 0.0 0.00 0.00 0.00 51 1111.0
20260502213047 55 247 0.0 0.0 0.00 0.00 0.00 51 1111.0
20260502212047 55 247 0.0 0.0 0.00 0.00 0.00 51 1111.0
20260502211047 55 270 0.0 0.0 0.00 0.00 0.00 52 1111.0
20260502210047 55 270 0.0 0.0 0.00 0.00 0.00 51 1111.0
20260502205047 55 270 0.0 0.0 0.00 0.00 0.00 50 1111.0
20260502204047 56 270 0.0 0.0 0.00 0.00 0.00 49 1111.0
20260502203047 56 270 0.0 0.0 0.00 0.00 0.00 48 1111.0
20260502202047 57 270 0.0 0.0 0.00 0.00 0.00 47 1111.0
20260502201047 57 270 0.0 0.0 0.00 0.00 0.00 47 1111.0
20260502200047 57 270 0.0 0.0 0.00 0.00 0.00 46 1111.0
20260502195048 58 270 0.0 0.0 0.00 0.00 0.00 45 1111.0
20260502194048 59 270 0.0 0.0 0.00 0.00 0.00 44 1111.0
20260502193048 59 270 0.0 0.0 0.00 0.00 0.00 44 1111.0
20260502192048 59 270 0.0 0.0 0.00 0.00 0.00 42 1111.0
20260502191048 60 270 0.0 0.0 0.00 0.00 0.00 41 1111.0
20260502190048 61 270 0.0 0.0 0.00 0.00 0.00 40 1111.0
20260502185048 61 270 0.0 0.0 0.00 0.00 0.00 39 1111.0
20260502184048 62 270 0.0 0.0 0.00 0.00 0.00 38 1111.0
20260502183048 64 270 0.0 0.0 0.00 0.00 0.00 36 1111.0
20260502182048 64 270 0.0 0.0 0.00 0.00 0.00 35 1111.0
20260502181048 65 270 0.0 0.0 0.00 0.00 0.00 34 1111.0
20260502164048 74 270 0.0 0.0 0.00 0.00 0.00 28 1111.0
20260502163048 76 157 0.0 0.0 0.00 0.00 0.00 27 1111.0
20260502162048 77 225 0.0 0.0 0.00 0.00 0.00 26 1111.0
20260502161048 78 180 0.0 0.0 0.00 0.00 0.00 26 1111.0
20260502152048 82 45 0.0 0.0 0.00 0.00 0.00 25 1111.0
20260502151048 83 135 0.0 0.0 0.00 0.00 0.00 25 1111.0
20260502123048 76 22 0.0 0.0 0.00 0.00 0.00 31 1111.0
20260502122048 75 247 0.0 0.0 0.00 0.00 0.00 32 1111.0
20260502121048 73 67 0.0 0.0 0.00 0.00 0.00 33 1111.0
20260502115048 70 112 0.0 0.0 0.00 0.00 0.00 33 1111.0
20260502114048 70 225 0.0 0.0 0.00 0.00 0.00 33 1111.0
20260502113048 69 112 0.0 0.0 0.00 0.00 0.00 34 1111.0
20260502112048 68 202 0.0 0.0 0.00 0.00 0.00 35 1111.0
20260502111048 68 180 0.0 0.0 0.00 0.00 0.00 35 1111.0
20260502110048 68 337 0.0 0.0 0.00 0.00 0.00 35 1111.0
20260502105049 67 247 0.0 0.0 0.00 0.00 0.00 35 1111.0
20260502104049 67 202 0.0 0.0 0.00 0.00 0.00 35 1111.0
20260502103049 67 45 0.0 0.0 0.00 0.00 0.00 35 1111.0
20260502102049 68 112 0.0 0.0 0.00 0.00 0.00 35 1111.0
20260502101049 68 135 0.0 0.0 0.00 0.00 0.00 37 1111.0
20260502091049 70 112 0.0 0.0 0.00 0.00 0.00 39 1111.0
20260502071049 68 112 0.0 0.0 0.00 0.00 0.00 48 1111.0
20260502070049 62 67 0.0 0.0 0.00 0.00 0.00 54 1111.0
20260502065049 56 67 0.0 0.0 0.00 0.00 0.00 57 1111.0
20260502064049 56 67 0.0 0.0 0.00 0.00 0.00 55 1111.0
20260502063049 56 67 0.0 0.0 0.00 0.00 0.00 55 1111.0
20260502062049 56 90 0.0 0.0 0.00 0.00 0.00 56 1111.0
20260502061049 54 67 0.0 0.0 0.00 0.00 0.00 58 1111.0
20260502060049 54 67 0.0 0.0 0.00 0.00 0.00 58 1111.0
20260502055049 53 67 0.0 0.0 0.00 0.00 0.00 59 1111.0
20260502054049 53 67 0.0 0.0 0.00 0.00 0.00 58 1111.0
20260502053049 54 67 0.0 0.0 0.00 0.00 0.00 59 1111.0
20260502052049 53 67 0.0 0.0 0.00 0.00 0.00 63 1111.0
20260502051049 49 67 0.0 0.0 0.00 0.00 0.00 64 1111.0
20260502050049 48 67 0.0 0.0 0.00 0.00 0.00 64 1111.0
20260502045049 48 67 0.0 0.0 0.00 0.00 0.00 64 1111.0
20260502044049 47 67 0.0 0.0 0.00 0.00 0.00 64 1111.0
20260502043050 47 67 0.0 0.0 0.00 0.00 0.00 64 1111.0
20260502042049 47 67 0.0 0.0 0.00 0.00 0.00 64 1111.0
20260502041049 47 67 0.0 0.0 0.00 0.00 0.00 63 1111.0
20260502040049 47 67 0.0 0.0 0.00 0.00 0.00 63 1111.0
20260502035049 47 67 0.0 0.0 0.00 0.00 0.00 63 1111.0
20260502034049 47 67 0.0 0.0 0.00 0.00 0.00 63 1111.0
20260502033049 47 67 0.0 0.0 0.00 0.00 0.00 63 1111.0
20260502032049 48 67 0.0 0.0 0.00 0.00 0.00 62 1111.0
20260502031049 48 67 0.0 0.0 0.00 0.00 0.00 62 1111.0
20260502030049 48 67 0.0 0.0 0.00 0.00 0.00 62 1111.0
20260502025049 48 67 0.0 0.0 0.00 0.00 0.00 63 1111.0
20260502024049 47 112 0.0 0.0 0.00 0.00 0.00 62 1111.0
20260502023049 48 112 0.0 0.0 0.00 0.00 0.00 61 1111.0
20260502022049 48 112 0.0 0.0 0.00 0.00 0.00 60 1111.0
20260502021050 48 112 0.0 0.0 0.00 0.00 0.00 60 1111.0
20260502020050 49 112 0.0 0.0 0.00 0.00 0.00 60 1111.0
20260502015050 49 112 0.0 0.0 0.00 0.00 0.00 60 1111.0
20260502014050 49 112 0.0 0.0 0.00 0.00 0.00 60 1111.0
20260502013050 49 112 0.0 0.0 0.00 0.00 0.00 60 1111.0
20260502012050 49 112 0.0 0.0 0.00 0.00 0.00 60 1111.0
20260502011050 49 112 0.0 0.0 0.00 0.00 0.00 60 1111.0
20260502010050 49 112 0.0 0.0 0.00 0.00 0.00 59 1111.0